{"data":{"norad_id":82250,"intl_designator":"","name":"UNKNOWN","alt_names":[],"object_type":"UNKNOWN","status":"UNKNOWN","operator":null,"country":null,"launch_date":null,"launch_site_code":null,"launch_vehicle":null,"mission":null,"orbit_class":"UNKNOWN","rcs_meters":null,"size_class":null,"mass_kg":null,"dimensions":null,"purposes":[],"wikipedia_slug":null,"has_3d_model":false,"image_url":null,"decayed_at":null,"tle_current":{"epoch":"2026-09-18T05:30:51.920640Z","epoch_age_seconds":210856,"freshness":"STALE","line1":"1 82250U          26261.22976760  .00002019  00000+0  10299-2 0  9997","line2":"2 82250  98.8976 171.0632 0069577 115.0584  36.9266 14.15568132656155","mean_motion":14.15568132,"eccentricity":0.0069577,"inclination_deg":98.8976,"raan_deg":171.0632,"arg_perigee_deg":115.0584,"mean_anomaly_deg":36.9266,"bstar":0.0010299,"rev_number":65615,"period_min":101.7259408041,"perigee_km":790.15582960133,"apogee_km":890.60438253914,"semimajor_km":7218.5171060702,"source":"CELESTRAK","updated_at":"2026-09-20T09:00:32.432217Z"}}}